ITY968 LIPX-LIPE

Flight info

Callsign ITY968
Flight time 0h 23m
Altitude 11000
Route AGGUF Y474 KIBJO DCT BENUS
Aircraft A20N/M-SDE2E3FGHIRWXY/LB1

Departure

Time 2026-04-24 05:37
Airport Verona Villafranca Valerio Catullo Airport (LIPX)

Arrival

Time 2026-04-24 06:00
Airport Bologna Guglielmo Marconi Airport (LIPE)
Time Latitude Longitude Altitude Speed Heading
2026-04-24 05:15 45.40388 10.90724 236 ft 0 kts 135°
2026-04-24 05:21 45.40389 10.90722 236 ft 2 kts 135°
2026-04-24 05:21 45.40401 10.90706 236 ft 2 kts 135°
2026-04-24 05:21 45.40412 10.90691 236 ft 2 kts 122°
2026-04-24 05:22 45.40418 10.90670 236 ft 2 kts 89°
2026-04-24 05:22 45.40415 10.90649 236 ft 0 kts 56°
2026-04-24 05:26 45.40412 10.90641 236 ft 2 kts 57°
2026-04-24 05:26 45.40407 10.90630 236 ft 1 kts 57°
2026-04-24 05:27 45.40430 10.90680 236 ft 5 kts 56°
2026-04-24 05:27 45.40463 10.90730 236 ft 9 kts 40°
2026-04-24 05:27 45.40513 10.90737 236 ft 6 kts 314°
2026-04-24 05:27 45.40549 10.90684 236 ft 9 kts 311°
2026-04-24 05:28 45.40545 10.90595 236 ft 11 kts 235°
2026-04-24 05:28 45.40485 10.90510 242 ft 13 kts 224°
2026-04-24 05:28 45.40412 10.90411 239 ft 15 kts 224°
2026-04-24 05:28 45.40358 10.90334 236 ft 12 kts 230°
2026-04-24 05:29 45.40326 10.90215 238 ft 14 kts 255°
2026-04-24 05:29 45.40301 10.90075 237 ft 15 kts 256°
2026-04-24 05:29 45.40305 10.89934 238 ft 13 kts 299°
2026-04-24 05:29 45.40368 10.89837 237 ft 14 kts 314°
2026-04-24 05:30 45.40400 10.89722 237 ft 14 kts 250°
2026-04-24 05:30 45.40342 10.89628 237 ft 14 kts 225°
2026-04-24 05:30 45.40265 10.89520 237 ft 17 kts 224°
2026-04-24 05:30 45.40191 10.89416 237 ft 16 kts 224°
2026-04-24 05:31 45.40111 10.89293 237 ft 18 kts 227°
2026-04-24 05:31 45.40017 10.89157 237 ft 21 kts 225°
2026-04-24 05:31 45.39922 10.89019 237 ft 20 kts 226°
2026-04-24 05:31 45.39835 10.88893 237 ft 18 kts 225°
2026-04-24 05:32 45.39740 10.88754 237 ft 21 kts 225°
2026-04-24 05:32 45.39655 10.88631 237 ft 18 kts 225°
2026-04-24 05:32 45.39565 10.88502 237 ft 17 kts 225°
2026-04-24 05:32 45.39484 10.88387 237 ft 17 kts 225°
2026-04-24 05:33 45.39409 10.88275 237 ft 16 kts 227°
2026-04-24 05:33 45.39324 10.88146 237 ft 19 kts 227°
2026-04-24 05:33 45.39242 10.88022 237 ft 17 kts 224°
2026-04-24 05:34 45.39060 10.87765 237 ft 18 kts 225°
2026-04-24 05:34 45.38979 10.87645 237 ft 16 kts 227°
2026-04-24 05:34 45.38913 10.87544 237 ft 12 kts 227°
2026-04-24 05:34 45.38844 10.87528 238 ft 10 kts 152°
2026-04-24 05:35 45.38840 10.87531 238 ft 0 kts 151°
2026-04-24 05:35 45.38826 10.87544 238 ft 5 kts 146°
2026-04-24 05:36 45.38786 10.87589 239 ft 10 kts 141°
2026-04-24 05:36 45.38763 10.87666 239 ft 9 kts 76°
2026-04-24 05:36 45.38770 10.87683 239 ft 0 kts 51°
2026-04-24 05:37 45.38945 10.87946 240 ft 74 kts 46°
2026-04-24 05:37 45.39466 10.88695 240 ft 135 kts 45°
2026-04-24 05:37 45.40173 10.89715 692 ft 141 kts 45°
2026-04-24 05:37 45.40833 10.90725 1365 ft 141 kts 52°
2026-04-24 05:38 45.41426 10.91861 1921 ft 145 kts 50°
2026-04-24 05:38 45.42126 10.92889 2585 ft 147 kts 44°
2026-04-24 05:38 45.42889 10.93890 3303 ft 151 kts 43°
2026-04-24 05:38 45.43520 10.95135 3905 ft 165 kts 75°
2026-04-24 05:39 45.43417 10.96815 4441 ft 184 kts 117°
2026-04-24 05:39 45.42491 10.98170 4971 ft 204 kts 151°
2026-04-24 05:39 45.41099 10.98924 5453 ft 226 kts 165°
2026-04-24 05:39 45.39503 10.99526 5933 ft 251 kts 166°
2026-04-24 05:40 45.37754 11.00255 6545 ft 273 kts 163°
2026-04-24 05:40 45.35918 11.01155 7364 ft 283 kts 160°
2026-04-24 05:40 45.34046 11.02169 8298 ft 289 kts 159°
2026-04-24 05:40 45.32164 11.03222 9303 ft 294 kts 159°
2026-04-24 05:41 45.30251 11.04302 10297 ft 292 kts 158°
2026-04-24 05:41 45.28582 11.05244 12375 ft 240 kts 157°
2026-04-24 05:41 45.27010 11.06135 13181 ft 250 kts 156°
2026-04-24 05:41 45.25355 11.07073 13253 ft 264 kts 156°
2026-04-24 05:42 45.23641 11.08040 13224 ft 265 kts 156°
2026-04-24 05:42 45.21936 11.08998 13016 ft 265 kts 156°
2026-04-24 05:42 45.20229 11.09958 12583 ft 270 kts 157°
2026-04-24 05:42 45.18446 11.10961 12048 ft 277 kts 157°
2026-04-24 05:43 45.16651 11.11969 11495 ft 285 kts 158°
2026-04-24 05:43 45.14781 11.13018 10958 ft 291 kts 158°
2026-04-24 05:43 45.12900 11.14072 10586 ft 290 kts 158°
2026-04-24 05:43 45.11022 11.15121 10245 ft 289 kts 158°
2026-04-24 05:44 45.09157 11.16162 9896 ft 287 kts 158°
2026-04-24 05:44 45.07276 11.17065 9546 ft 284 kts 167°
2026-04-24 05:44 45.05330 11.17493 9179 ft 282 kts 177°
2026-04-24 05:44 45.03378 11.17658 8812 ft 280 kts 173°
2026-04-24 05:45 45.01468 11.18082 8468 ft 278 kts 170°
2026-04-24 05:45 44.99573 11.18582 8127 ft 276 kts 169°
2026-04-24 05:45 44.97688 11.19065 7778 ft 274 kts 170°
2026-04-24 05:45 44.95828 11.19511 7501 ft 270 kts 171°
2026-04-24 05:46 44.94007 11.19923 7406 ft 259 kts 171°
2026-04-24 05:46 44.92276 11.20304 7312 ft 248 kts 172°
2026-04-24 05:46 44.90609 11.20664 7207 ft 238 kts 172°
2026-04-24 05:46 44.88982 11.21015 6983 ft 235 kts 172°
2026-04-24 05:47 44.87368 11.21363 6701 ft 234 kts 172°
2026-04-24 05:47 44.85761 11.21709 6431 ft 233 kts 172°
2026-04-24 05:47 44.84162 11.22053 6152 ft 232 kts 172°
2026-04-24 05:47 44.82570 11.22395 5885 ft 231 kts 172°
2026-04-24 05:48 44.81004 11.22733 5615 ft 230 kts 172°
2026-04-24 05:48 44.79427 11.23073 5344 ft 229 kts 172°
2026-04-24 05:48 44.77847 11.23345 5078 ft 228 kts 180°
2026-04-24 05:48 44.76287 11.23062 4799 ft 226 kts 198°
2026-04-24 05:49 44.74792 11.22406 4548 ft 224 kts 198°
2026-04-24 05:49 44.73304 11.21772 4298 ft 223 kts 198°
2026-04-24 05:49 44.71840 11.21164 4309 ft 204 kts 198°
2026-04-24 05:49 44.70454 11.20577 5107 ft 213 kts 201°
2026-04-24 05:50 44.69221 11.19400 5833 ft 223 kts 233°
2026-04-24 05:50 44.68595 11.17411 6479 ft 228 kts 262°
2026-04-24 05:50 44.68649 11.15166 6604 ft 235 kts 286°
2026-04-24 05:50 44.69119 11.12957 6587 ft 235 kts 288°
2026-04-24 05:51 44.69589 11.10820 6534 ft 228 kts 288°
2026-04-24 05:51 44.70054 11.08711 6332 ft 225 kts 288°
2026-04-24 05:51 44.70518 11.06612 6050 ft 225 kts 288°
2026-04-24 05:51 44.70982 11.04519 5785 ft 224 kts 288°
2026-04-24 05:52 44.71442 11.02443 5535 ft 223 kts 288°
2026-04-24 05:52 44.71909 11.00344 5133 ft 229 kts 288°
2026-04-24 05:52 44.72393 10.98173 4666 ft 237 kts 288°
2026-04-24 05:52 44.72898 10.95928 4189 ft 244 kts 288°
2026-04-24 05:53 44.73096 10.93605 4094 ft 225 kts 256°
2026-04-24 05:53 44.72532 10.91580 3615 ft 239 kts 244°
2026-04-24 05:53 44.71616 10.89691 3533 ft 229 kts 220°
2026-04-24 05:53 44.70264 10.88777 3539 ft 217 kts 188°
2026-04-24 05:54 44.68753 10.89073 3541 ft 228 kts 155°
2026-04-24 05:54 44.67554 10.90491 3512 ft 227 kts 123°
2026-04-24 05:54 44.66835 10.92441 3373 ft 223 kts 117°
2026-04-24 05:54 44.66056 10.94317 3140 ft 223 kts 123°
2026-04-24 05:55 44.65248 10.96172 2890 ft 222 kts 115°
2026-04-24 05:55 44.64609 10.98143 2656 ft 221 kts 116°
2026-04-24 05:55 44.63946 11.00007 2805 ft 228 kts 116°
2026-04-24 05:55 44.63133 11.02294 2862 ft 270 kts 120°
2026-04-24 05:56 44.62260 11.04497 3080 ft 261 kts 117°
2026-04-24 05:56 44.61498 11.06774 2889 ft 251 kts 117°
2026-04-24 05:56 44.60725 11.08896 2770 ft 236 kts 116°
2026-04-24 05:56 44.60046 11.10789 2700 ft 204 kts 117°
2026-04-24 05:57 44.59448 11.12450 2497 ft 177 kts 117°
2026-04-24 05:57 44.58929 11.13891 2273 ft 155 kts 117°
2026-04-24 05:57 44.58465 11.15174 2072 ft 141 kts 117°
2026-04-24 05:57 44.58038 11.16367 1904 ft 139 kts 117°
2026-04-24 05:58 44.57602 11.17577 1713 ft 137 kts 117°
2026-04-24 05:58 44.57170 11.18776 1526 ft 137 kts 117°
2026-04-24 05:58 44.56750 11.19945 1349 ft 135 kts 117°
2026-04-24 05:58 44.56326 11.21122 1155 ft 134 kts 117°
2026-04-24 05:59 44.55908 11.22280 990 ft 132 kts 118°
2026-04-24 05:59 44.55489 11.23418 801 ft 130 kts 119°
2026-04-24 05:59 44.55093 11.24558 611 ft 130 kts 117°
2026-04-24 05:59 44.54710 11.25699 414 ft 130 kts 119°
2026-04-24 06:00 44.54300 11.26820 271 ft 129 kts 120°
2026-04-24 06:00 44.53890 11.27935 148 ft 128 kts 120°
2026-04-24 06:00 44.53525 11.28907 125 ft 87 kts 117°
2026-04-24 06:00 44.53374 11.29350 126 ft 32 kts 117°
2026-04-24 06:01 44.53285 11.29553 128 ft 15 kts 138°
2026-04-24 06:01 44.53203 11.29649 128 ft 15 kts 147°
2026-04-24 06:01 44.53109 11.29732 130 ft 17 kts 148°
2026-04-24 06:01 44.53053 11.29781 129 ft 10 kts 149°
2026-04-24 06:02 44.52991 11.29769 127 ft 9 kts 239°
2026-04-24 06:02 44.53006 11.29680 126 ft 11 kts 301°
2026-04-24 06:02 44.53044 11.29572 128 ft 14 kts 296°
2026-04-24 06:02 44.53080 11.29470 126 ft 11 kts 296°
2026-04-24 06:03 44.53092 11.29433 126 ft 3 kts 295°
2026-04-24 06:03 44.53084 11.29399 130 ft 5 kts 237°
2026-04-24 06:03 44.53060 11.29380 126 ft 0 kts 206°